COSMOS 2144

Satellite information

Favourite Embed

Satellite Type and Status

PAYLOADIN ORBIT

Key statistics

Satellite COSMOS 2144 at a glance.

Uptime

12584

Days in orbit

Revolutions

≈ 12.6

Per day

Orbit

LEO

Low Earth Orbit

Inclination

82.6

Latest

Satellite identification and parameters

Extended collection of information and parameters for COSMOS 2144.

Object identification

Identified? True

Debris? False

Object name: COSMOS 2144

International designator: 1991-033B

Object number (NORAD): 21300

Object ID (CCSDS): 21300

Country: COMMONWEALTH OF INDEPENDENT STATES (CIS)

Current information (Y/N): Y

RCS size: MEDIUM

Orbital parameters

Period: 114.07 minutes

Inclination: 82.573 deg

SMA: 7791.252 km

Apoapsis: 1416.402 km

Periapsis: 1409.832 km

RAAN: 117.6287 deg

Eccentricy: 0.00042165

Argument of periapsis: 279.6081 deg

Mean anomaly: 80.4534 deg

Mean motion: 12.62385184 rev/day

Mean motion (dot): 0.00000027 rev/day2

B* drag term: 0.000092223168 1/REarth

Two-line elements (TLE)

Creation date: Oct. 28, 2025, 2:18 a.m.

Reference frame: TEME

Reference center: EARTH

Epoch: Oct. 27, 2025, 10:35 p.m. UTC

TLE line 0: 0 COSMOS 2144

TLE line 1: 1 21300U 91033B 25300.94135158 .00000027 00000-0 92223-4 0 9999

TLE line 2: 2 21300 82.5730 117.6287 0004217 279.6081 80.4534 12.62385184587152

Live tracking on map

Real-time ground track for satellite COSMOS 2144.

In-orbit conjunctions

A list of the most updated potential collisions computed for object COSMOS 2144.

Target Orbit TCA Probability of collision Miss distance Type
COSMOS 2491 DEB LEO 2024-09-03 03:56:27 0.0001167846 385.0 (m) DEBRIS

Associated space launch

Second generation store-dump military communications satellite

COSMOS 2144 was lifted into orbit during the mission ‘Tsiklon-3 | Strela-3 61 to 66’, on board a Tsiklon-3 space rocket.

The launch took place on May 16, 1991, 9:40 p.m. from 32/2.

For more information about the launch, click the button.

Launch to space Tsiklon-3 | Strela-3 61 to 66
Tsiklon-3 | Strela-3 61 to 66

Agency: N/A

Status: Launch Successful

Launch date: May 16, 1991, 9:40 p.m. UTC

Rocket: Tsiklon-3

Launch pad: 32/2

Location: Plesetsk Cosmodrome, Russian Federation

...

Latest news about this satellite

There are no fresh news available about this satellite. Check back as we update our databases every day.


Newsletter sign-up

Weekly statistics, charts and insights to help you stay on top of the space industry.